TimeCDT,TemperatureF,Dew PointF,Humidity,Sea Level PressureIn,VisibilityMPH,Wind Direction,Wind SpeedMPH,Gust SpeedMPH,PrecipitationIn,Events,Conditions,WindDirDegrees,DateUTC
12:53 AM,50.0,44.6,82,30.17,10.0,Calm,Calm,-,N/A,,Clear,0,2013-05-11 05:53:00
1:53 AM,50.0,45.0,83,30.14,10.0,WSW,4.6,-,N/A,,Clear,240,2013-05-11 06:53:00
2:53 AM,48.0,44.1,86,30.14,10.0,SW,4.6,-,N/A,,Clear,230,2013-05-11 07:53:00
3:53 AM,45.0,43.0,93,30.15,10.0,WSW,4.6,-,N/A,,Clear,250,2013-05-11 08:53:00
4:53 AM,46.9,43.0,86,30.14,10.0,WSW,6.9,-,N/A,,Clear,240,2013-05-11 09:53:00
5:53 AM,46.0,43.0,89,30.15,10.0,WSW,9.2,-,N/A,,Clear,250,2013-05-11 10:53:00
6:53 AM,46.0,43.0,89,30.17,10.0,WSW,8.1,-,N/A,,Clear,240,2013-05-11 11:53:00
7:53 AM,51.1,46.0,83,30.19,10.0,West,6.9,-,N/A,,Clear,260,2013-05-11 12:53:00
8:53 AM,60.1,48.9,67,30.19,10.0,West,4.6,-,N/A,,Partly Cloudy,280,2013-05-11 13:53:00
9:53 AM,68.0,46.9,47,30.19,10.0,NNW,12.7,-,N/A,,Scattered Clouds,340,2013-05-11 14:53:00
10:53 AM,68.0,46.9,47,30.20,10.0,North,17.3,-,N/A,,Scattered Clouds,350,2013-05-11 15:53:00
11:53 AM,72.0,48.0,43,30.22,10.0,North,16.1,24.2,N/A,,Clear,360,2013-05-11 16:53:00
12:53 PM,72.0,48.9,44,30.22,10.0,NE,18.4,-,N/A,,Clear,40,2013-05-11 17:53:00
1:53 PM,72.0,48.0,43,30.22,10.0,NE,17.3,-,N/A,,Partly Cloudy,50,2013-05-11 18:53:00
2:53 PM,72.0,45.0,38,30.24,10.0,NE,18.4,28.8,N/A,,Clear,40,2013-05-11 19:53:00
3:53 PM,73.0,44.1,35,30.22,10.0,NNE,16.1,27.6,N/A,,Partly Cloudy,30,2013-05-11 20:53:00
4:53 PM,72.0,39.9,31,30.21,10.0,NE,17.3,26.5,N/A,,Clear,40,2013-05-11 21:53:00
5:53 PM,72.0,41.0,33,30.22,10.0,NNE,11.5,20.7,N/A,,Clear,20,2013-05-11 22:53:00
6:53 PM,70.0,39.0,32,30.22,10.0,NE,12.7,-,N/A,,Clear,40,2013-05-11 23:53:00
7:53 PM,66.9,37.9,34,30.22,10.0,ENE,9.2,-,N/A,,Clear,60,2013-05-12 00:53:00
8:53 PM,61.0,39.0,44,30.23,10.0,ENE,5.8,-,N/A,,Clear,70,2013-05-12 01:53:00
9:53 PM,55.0,39.9,57,30.24,10.0,ESE,5.8,-,N/A,,Clear,110,2013-05-12 02:53:00
10:53 PM,52.0,39.9,63,30.26,10.0,ESE,5.8,-,N/A,,Clear,120,2013-05-12 03:53:00
11:53 PM,50.0,39.9,68,30.26,10.0,Calm,Calm,-,N/A,,Clear,0,2013-05-12 04:53:00